Regional Weather Roundup
Issued by NWS

Home | Current Version | Previous Version | Text Only | Print | Product List | Glossary Off
Versions: 1 2 3 4 5 6 7 8 9 10 11 12 13 14 15 16 17 18 19 20 21 22 23 24 25 26 27 28 29 30 31 32 33 34 35 36 37 38 39 40 41 42 43 44 45 46 47 48 49 50

000
ASUS45 KABQ 101301
RWRNM
NEW MEXICO REGIONAL WEATHER ROUNDUP
NATIONAL WEATHER SERVICE ALBUQUERQUE NM
600 AM MST SAT DEC 10 2016

NOTE: "FAIR" MEANS FEW OR NO CLOUDS BELOW 12,000 FEET AGL WITH NO
       SIGNIFICANT WEATHER OR OBSTRUCTIONS TO VISION.

      THIS PRODUCT IS RELEASED AS TWO VERSIONS.  ONE VERSION NEAR
      THE TOP OF THE HOUR CONTAINING PRELIMINARY DATA FROM ALBUQUERQUE
      AND OTHER STATIONS.  A FINAL VERSION WITH ADDITIONAL DATA IS
      ISSUED ABOUT 10 MINUTES AFTER THE HOUR.

NMZ501-503-504-510>518-101400-
NORTHWEST PLATEAU/NORTHCENTRAL MOUNTAINS

CITY           SKY/WX    TMP DP  RH WIND       PRES   REMARKS
FARMINGTON     FAIR      25  21  85 E10       30.22F WCI  15
LOS ALAMOS     FAIR      32  23  70 CALM      30.26R
SANTA FE       FAIR      26  22  84 N6        30.23F WCI  19
TAOS           FAIR      19  10  68 NE5       30.26R WCI  13
ANGEL FIRE     FAIR      30  24  80 E9G17     30.23R WCI  21

$$
NMZ402-403-502-505>509-101400-
WESTCENTRAL MOUNTAINS/SOUTHWEST MOUNTAINS

CITY           SKY/WX    TMP DP  RH WIND       PRES   REMARKS
GALLUP         FAIR      17  15  92 E3        30.24F
GRANTS         FAIR      18  16  92 NW6       30.27S WCI  10
SILVER CITY    FAIR      26  24  93 N3        30.25S

$$
NMZ407-409-411-412-101400-
SOUTHERN DESERTS

CITY           SKY/WX    TMP DP  RH WIND       PRES   REMARKS
DEMING         FAIR      26  24  92 N5        30.27S WCI  20
LAS CRUCES     FAIR      26  23  90 CALM      30.28S
HOLLOMAN AFB   FAIR      23  17  78 E6        30.31F WCI  15
T OR C         FAIR      27  22  81 NW7       30.25F WCI  19

$$
NMZ519>523-101400-
CENTRAL VALLEYS/CENTRAL HIGHLANDS

CITY           SKY/WX    TMP DP  RH WIND       PRES   REMARKS
ALBUQUERQUE    FAIR      28  24  85 NW3       30.26S
DOUBLE EAGLE   CLEAR     21  19  93 CALM      30.26R
CLINES CORNERS FAIR      24  20  84 NW12      30.22F WCI  13
BELEN          FAIR      23  20  90 NW5       30.26S WCI  16
SOCORRO        FAIR      25  24  95 SW3       30.26F

$$
NMZ524>526-539-540-101400-
SOUTHCENTRAL MOUNTAINS

CITY           SKY/WX    TMP DP  RH WIND       PRES   REMARKS
RUIDOSO        FAIR      36  21  55 W5        30.25S WCI  32

$$
NMZ527>531-101400-
NORTHEAST HIGHLANDS/NORTHEAST PLAINS

CITY           SKY/WX    TMP DP  RH WIND       PRES   REMARKS
LAS VEGAS      FAIR      34  18  52 S5        30.15S WCI  30
RATON          FAIR      22  15  75 N8        30.10S WCI  12
CLAYTON        FAIR      47  26  44 W17       30.03F

$$
NMZ532>537-101400-
EASTCENTRAL PLAINS

CITY           SKY/WX    TMP DP  RH WIND       PRES   REMARKS
TUCUMCARI      FAIR      34  27  75 SW9       30.08F WCI  27
CANNON AFB     NOT AVBL
CLOVIS AIRPORT FAIR      28  25  86 W6        30.14S WCI  22

$$
NMZ028-029-538-101400-
SOUTHEAST PLAINS

CITY           SKY/WX    TMP DP  RH WIND       PRES   REMARKS
ROSWELL        FOG       30  28  92 N3        30.20S VSB 1/4
ARTESIA        FOG       30  30 100 SE7       30.21S VSB<1/4 WCI  23
CARLSBAD       NOT AVBL


$$




USA.gov is the U.S. government's official web portal to all federal, state and local government web resources and services.